Wind_Speed
42 44 45 46 46 47 49 50 49 49 49 47 45 44 44 45 47 49 50 51 51 51 50 50 49 49 49 49 48 48 47 45 44 42 41 41 42 42 42 42 43 43 44 44 44 44 45 45 46 46 47 47 47 47 47 47 48 48 49 50 50 50 49 48 48 47 47 47 47 46 45 42 39 37 35 33 32 31 31 30 30 30 30 29 28 26
42 43 43 43 43 43 46 48 48 49 49 49 49 48 47 47 47 49 50 51 52 52 51 50 50 49 49 49 49 48 48 47 46 45 44 43 43 43 42 42 43 44 45 46 46 46 46 46 46 47 47 48 48 48 49 49 49 50 50 51 51 50 50 49 49 48 48 48 48 46 44 41 39 36 34 32 31 31 30 30 30 30 30 29 27 25
41 42 42 41 40 40 43 45 47 48 48 48 48 48 48 47 47 48 50 51 52 52 52 51 50 49 49 49 49 49 49 48 48 47 46 45 44 44 43 43 44 45 47 48 48 48 47 47 47 48 48 48 49 49 49 50 50 51 51 52 51 50 49 49 49 49 49 49 48 46 43 41 38 36 33 32 31 31 30 30 30 30 30 29 27 26
43 42 42 40 40 41 43 44 46 47 47 47 47 47 47 47 47 48 49 50 51 52 52 51 50 49 49 49 50 50 49 48 48 47 47 46 45 44 44 45 46 47 48 49 50 49 49 49 49 49 50 50 50 50 50 51 51 52 52 52 51 50 49 49 49 50 50 49 48 45 43 40 37 35 33 32 31 30 30 30 30 30 30 29 28 27
44 44 44 44 44 45 46 45 45 45 45 46 46 46 46 46 47 48 49 49 50 51 51 51 51 50 49 50 51 51 51 49 48 47 47 46 45 45 45 46 47 49 49 50 51 51 51 51 51 51 51 51 51 51 51 51 52 52 53 53 52 51 50 49 50 50 50 49 48 45 42 40 37 34 33 31 31 30 30 30 30 30 29 29 28 28
44 45 45 45 46 47 47 46 45 44 43 42 42 43 45 47 48 48 49 49 50 50 51 51 51 50 50 50 51 52 52 51 49 48 47 47 46 45 45 47 48 49 50 51 52 52 53 53 53 53 53 53 53 52 52 52 53 54 54 54 53 52 51 50 50 51 51 49 48 45 42 39 36 34 32 31 30 30 30 30 30 29 29 29 28 28
45 44 43 43 43 44 44 46 47 45 41 39 40 42 44 46 48 48 49 50 51 51 52 52 52 51 51 51 52 53 53 51 50 49 48 48 47 46 46 47 49 49 50 51 52 53 53 54 54 54 54 54 54 54 53 53 54 55 55 56 55 54 52 51 51 51 51 50 48 45 42 38 35 33 32 31 30 29 29 30 29 29 29 29 28 27
45 46 45 45 43 42 42 44 46 46 43 41 41 43 45 46 47 48 49 50 51 52 53 53 53 53 53 53 53 53 53 51 50 49 49 48 47 46 46 47 48 50 51 52 52 53 54 54 54 54 55 55 55 55 55 55 56 56 57 57 56 55 53 52 52 52 51 50 48 45 41 38 35 33 31 30 29 29 29 29 29 29 29 28 28 27
43 45 46 46 44 43 43 44 46 47 45 44 43 43 44 45 46 46 47 49 50 51 52 53 54 54 54 54 53 52 52 51 49 48 48 48 47 47 46 47 49 50 52 52 53 53 54 54 54 54 55 55 56 56 56 57 57 57 58 58 57 56 54 54 53 52 51 49 47 43 40 37 34 32 30 29 28 28 29 29 29 29 29 28 27 27
41 42 43 43 42 43 44 46 48 48 47 46 44 44 43 43 43 44 45 47 48 49 50 51 53 54 55 54 52 51 50 49 48 48 48 48 48 48 48 49 50 51 52 52 53 53 54 54 54 54 55 55 56 57 57 58 58 58 58 58 57 56 55 55 54 52 50 48 45 42 39 36 33 30 29 28 28 28 28 29 29 29 28 28 27 26
41 41 41 42 43 44 44 45 47 47 46 45 45 45 44 43 42 42 43 45 46 47 47 49 51 53 54 54 53 50 49 48 48 48 49 49 49 49 50 51 52 53 53 53 53 54 54 55 54 54 54 55 57 58 58 59 59 59 58 58 57 57 56 56 54 52 49 46 43 40 38 34 31 29 28 27 27 28 28 29 29 28 28 27 26 26
41 41 42 41 40 41 42 44 45 44 44 42 42 42 42 42 41 40 40 43 45 46 47 48 50 52 53 54 53 50 48 48 49 50 51 51 51 51 52 52 53 53 53 53 54 54 54 54 54 54 54 55 57 58 59 60 60 59 59 58 57 57 57 57 55 52 48 45 42 39 36 33 30 28 27 27 27 27 28 28 28 28 27 26 26 25
40 40 41 40 39 40 42 43 43 42 41 39 38 38 39 40 40 40 40 43 45 47 47 49 50 52 53 53 51 49 47 48 50 52 53 53 53 53 53 53 53 53 53 53 53 53 53 53 53 53 53 55 57 59 60 61 61 60 59 58 57 58 58 58 55 51 46 43 40 38 35 31 29 27 26 26 26 27 28 28 28 27 26 26 25 25
38 38 38 38 38 39 40 39 39 40 40 38 38 39 41 43 43 41 39 41 44 46 47 48 49 51 52 51 49 47 45 47 51 53 55 55 55 54 54 54 54 53 53 52 52 52 52 51 51 51 52 54 56 58 60 61 61 60 59 58 57 58 59 58 54 49 44 41 38 36 33 29 27 26 25 25 26 27 27 28 27 26 26 25 25 25
38 38 38 38 37 37 37 35 35 35 37 36 38 41 43 44 44 43 41 40 41 43 44 45 47 48 49 49 47 45 44 47 50 53 55 56 56 55 54 54 54 53 52 52 51 50 51 50 50 51 52 54 56 57 59 60 60 59 58 57 57 58 58 56 52 46 42 39 37 34 30 27 25 25 24 25 26 27 27 27 27 26 25 25 25 25
39 39 39 39 39 39 38 37 36 36 36 35 35 36 36 38 41 44 43 42 41 40 40 41 42 43 44 46 46 44 44 46 49 53 55 56 56 55 54 53 53 52 51 50 50 49 49 49 50 51 53 54 56 57 58 59 59 59 58 57 57 58 57 53 48 43 40 37 34 31 28 26 24 24 24 25 26 27 27 27 26 26 25 25 25 25
38 37 36 38 40 40 40 39 40 41 42 41 40 38 36 36 37 38 38 41 40 39 38 38 36 35 36 41 44 44 43 45 47 50 52 53 54 54 54 53 52 52 51 51 50 49 49 49 50 51 53 55 56 57 58 58 58 58 57 57 57 56 53 49 44 41 38 35 32 28 26 24 23 24 25 26 27 27 27 27 26 26 26 26 25 25
37 36 36 37 39 39 39 39 41 42 42 43 43 42 42 40 38 36 36 36 36 37 37 38 37 35 33 34 40 44 43 43 44 46 48 51 52 53 53 53 52 52 52 51 51 50 50 50 50 52 53 54 55 56 56 56 56 56 57 56 55 53 49 44 41 38 36 32 29 26 25 23 23 24 25 26 27 27 27 27 27 27 26 26 25 25
38 38 37 38 39 39 40 40 41 41 40 40 39 39 42 43 42 39 37 36 36 37 39 39 40 40 39 38 40 43 43 43 43 44 46 49 51 52 52 51 51 51 51 51 51 50 50 50 51 51 53 54 55 54 54 54 54 54 54 53 51 48 44 41 38 36 33 30 27 25 24 23 23 24 26 27 27 27 27 27 27 27 27 26 25 24
40 40 39 39 40 40 41 40 40 39 39 40 40 41 43 45 45 44 42 41 40 41 41 41 41 43 44 44 44 44 45 45 44 44 46 48 49 51 51 50 49 49 49 50 50 50 50 50 51 52 52 53 54 53 53 53 53 53 51 49 45 42 39 37 36 34 31 28 26 24 23 23 23 25 26 27 27 27 28 28 27 27 27 26 25 24
39 40 41 40 40 41 42 42 42 42 42 42 42 42 42 43 43 43 44 45 44 42 41 41 42 44 46 45 45 45 47 46 45 45 46 46 47 48 49 49 48 47 48 49 50 50 50 50 51 52 53 53 53 52 52 52 52 50 47 43 40 38 36 35 33 31 28 26 24 23 22 23 24 25 26 27 27 28 28 28 28 27 26 25 24 24
39 41 42 42 41 41 41 43 45 45 44 41 39 39 39 39 39 40 41 42 41 40 41 43 45 46 47 45 45 46 48 48 47 45 44 42 43 46 48 48 46 46 47 48 49 50 50 50 51 52 52 52 52 52 52 51 49 46 42 39 37 35 35 33 31 28 26 24 23 22 22 23 24 25 26 27 28 28 28 28 27 26 25 24 24 24
40 41 42 42 42 41 41 42 43 44 43 42 41 40 40 39 39 39 40 41 41 41 42 44 46 47 47 46 46 47 48 48 47 44 41 39 41 45 48 47 45 45 46 47 49 49 50 50 50 51 51 51 51 51 50 49 46 42 39 36 35 34 33 31 28 26 24 22 22 22 22 23 24 25 26 27 28 28 28 27 27 25 24 24 23 23
40 41 41 41 41 40 40 41 41 42 42 43 44 45 45 44 45 45 45 46 46 45 44 45 45 45 46 46 46 47 47 46 45 42 40 40 42 45 47 46 44 44 45 47 48 49 49 49 49 50 50 50 50 50 48 46 43 39 37 35 35 34 32 29 26 23 22 22 22 22 23 24 25 26 27 28 28 28 27 26 25 24 23 23 23 22
40 40 40 40 40 40 40 40 40 41 42 43 44 46 48 48 49 49 49 49 49 48 47 45 44 44 45 46 45 45 45 45 44 43 42 42 43 45 46 46 44 42 43 45 46 47 48 48 48 49 49 49 49 48 46 44 41 38 36 35 34 32 29 26 23 22 22 22 23 23 24 25 26 27 28 28 28 27 26 25 24 23 23 22 22 22
41 41 41 41 40 40 40 40 40 40 41 42 43 45 46 46 47 48 48 49 48 47 46 44 44 44 45 44 44 44 44 44 45 46 45 43 41 41 43 44 42 40 40 42 44 45 46 47 47 47 48 48 47 46 44 42 40 38 36 34 32 29 26 23 21 21 22 23 24 25 25 26 26 27 28 28 27 26 25 24 23 23 22 22 22 22
44 44 43 43 42 41 40 40 40 40 40 40 41 41 42 43 44 46 46 46 45 44 43 42 41 42 42 42 42 43 44 45 46 47 46 43 40 39 41 42 40 37 38 40 41 42 43 44 45 45 44 44 44 43 42 40 38 36 34 32 30 26 23 21 22 22 24 24 25 25 26 26 27 27 27 27 26 25 24 23 23 22 22 22 23 23
47 47 46 45 43 42 41 40 40 39 39 39 39 39 40 41 43 45 45 44 42 41 40 40 39 39 39 40 42 43 45 45 46 46 45 41 39 39 41 40 38 35 35 37 38 38 39 39 40 41 40 40 40 40 39 37 36 34 32 29 26 23 22 22 23 24 25 25 26 26 26 26 26 26 26 26 25 24 23 23 22 22 22 23 23 24
48 48 48 46 45 43 42 41 40 40 39 39 39 39 39 40 41 42 43 41 40 40 40 39 39 39 39 40 41 42 43 44 44 44 42 38 38 40 41 39 36 34 33 34 34 32 33 34 35 36 36 36 36 36 36 35 33 31 29 26 24 23 23 24 25 26 26 26 26 26 26 26 26 26 25 25 24 24 23 22 22 22 22 23 24 24
50 50 49 47 45 44 42 41 41 40 40 40 39 39 38 38 38 39 39 38 38 38 39 39 40 40 39 38 36 37 39 42 42 41 39 37 37 39 40 37 35 33 33 32 29 27 27 30 31 32 33 33 34 34 34 33 32 30 28 26 25 24 25 26 26 26 26 26 26 26 26 25 25 25 25 25 24 23 23 22 22 22 22 23 23 24
51 50 48 46 45 43 42 41 40 40 40 39 38 37 35 34 34 35 35 35 36 37 38 39 39 39 39 37 33 31 35 39 40 38 37 35 37 38 37 35 34 33 33 30 27 25 25 29 30 31 31 32 33 33 32 32 31 29 28 27 26 27 27 27 27 26 26 26 26 26 25 25 25 25 25 24 24 23 22 21 21 21 22 22 23 24
48 47 45 44 43 43 42 41 40 40 39 37 35 34 33 32 32 33 33 34 35 36 37 38 39 40 40 39 36 35 36 38 37 36 34 33 34 36 36 34 32 31 31 28 27 26 26 29 31 32 32 32 32 31 31 30 29 28 27 27 27 27 27 27 27 27 27 26 26 25 25 24 24 24 24 24 23 22 22 21 21 21 21 22 23 24
43 42 42 42 42 42 42 41 39 37 36 34 33 32 31 31 31 32 33 33 34 35 36 38 39 39 40 40 39 38 37 36 35 34 31 30 32 34 34 33 31 30 28 27 27 28 27 30 32 33 32 32 31 30 29 28 27 26 26 25 25 26 26 26 28 29 29 28 27 26 24 24 24 24 23 23 22 22 21 21 21 21 22 23 24 24
39 39 39 40 41 41 40 38 36 34 32 31 30 30 30 31 31 32 33 33 33 34 35 37 38 38 38 38 37 35 35 35 34 32 30 28 29 32 33 32 31 30 29 29 30 30 28 28 31 33 32 31 29 28 27 26 26 25 24 24 24 24 25 26 28 29 29 28 28 27 26 25 25 25 24 24 23 23 22 22 22 22 22 23 24 25
37 38 38 39 39 38 37 35 33 31 30 29 30 30 31 31 32 33 33 33 33 33 34 35 37 38 37 35 34 33 34 34 34 32 29 26 26 28 30 31 32 32 31 32 33 31 27 24 27 30 31 29 28 26 26 25 24 23 23 22 23 24 25 26 27 28 28 28 27 27 27 27 27 27 27 26 26 25 25 24 24 24 24 24 25 26
37 38 37 37 37 36 35 33 32 31 30 30 30 31 32 33 33 33 33 33 33 33 33 33 35 36 37 35 33 32 33 33 32 29 26 23 22 25 28 30 32 32 33 34 34 32 28 23 22 24 26 26 26 25 25 24 23 22 22 23 24 25 26 27 27 27 27 27 26 26 26 27 27 27 27 27 27 27 27 27 26 26 26 26 26 27
37 37 37 36 35 34 33 32 31 31 31 32 32 33 33 34 34 34 34 33 33 32 32 32 33 34 35 35 34 33 31 30 28 25 23 21 21 23 27 30 31 31 33 34 35 34 30 24 20 19 20 22 23 24 24 23 23 23 24 25 25 26 26 26 26 26 26 26 26 26 26 26 26 26 26 26 27 27 28 28 28 28 28 28 28 28
36 36 36 36 35 34 33 32 32 32 33 34 35 35 35 35 35 35 34 33 33 32 31 31 31 32 32 32 32 31 29 26 24 21 20 19 20 23 27 29 30 30 31 32 32 32 30 25 21 18 18 18 19 21 21 22 23 24 25 25 26 26 25 25 25 25 25 25 25 25 25 25 26 26 26 26 27 28 28 29 29 29 30 30 30 30
36 36 36 35 34 33 33 33 33 34 34 35 36 36 36 36 36 35 34 33 32 31 30 29 29 28 28 28 28 27 25 22 20 18 18 19 22 25 27 29 29 29 29 28 27 26 24 21 19 17 17 17 17 18 19 21 23 24 25 25 25 25 24 24 24 24 24 24 24 24 24 25 25 26 26 27 27 28 29 29 30 30 30 30 30 30
36 36 36 35 33 32 32 32 33 33 34 35 36 36 36 36 35 34 33 32 30 29 28 27 26 25 25 25 24 22 21 19 18 17 17 20 23 26 27 27 26 25 24 23 22 19 17 14 13 12 13 14 16 17 20 21 22 23 23 24 25 24 23 23 23 23 23 23 23 23 24 24 25 25 26 27 28 28 29 29 29 30 30 29 30 29
36 36 35 34 32 30 30 31 32 33 34 36 36 36 36 35 34 32 31 29 27 26 25 24 23 22 22 21 20 19 18 17 16 16 18 21 24 26 25 21 19 18 17 17 16 15 12 10 9 10 11 13 14 16 18 20 21 21 22 23 23 22 22 21 21 21 22 22 22 23 23 24 25 25 26 27 28 28 28 28 29 29 29 29 29 29
36 35 34 33 31 31 31 31 32 33 34 35 36 35 34 32 30 28 26 25 23 22 22 21 20 18 17 17 16 15 15 15 15 16 18 22 25 26 23 18 15 14 14 14 14 13 12 11 10 10 12 13 14 15 16 18 19 20 20 21 20 20 20 20 20 21 21 21 22 22 23 24 25 25 26 27 27 27 28 28 28 28 28 28 28 28
36 34 33 31 31 31 32 33 34 34 34 34 33 32 31 29 26 24 22 20 19 18 17 16 16 16 17 16 16 15 16 15 15 16 19 22 24 24 22 19 16 14 14 14 14 14 14 13 12 12 12 13 14 15 15 16 17 18 19 19 19 19 18 19 20 20 21 21 22 22 23 24 24 25 26 26 27 27 27 27 27 27 27 27 27 27
35 33 31 30 31 31 33 34 34 33 32 32 30 28 27 25 22 20 18 17 17 16 16 15 16 17 17 18 18 18 18 18 18 19 20 22 23 23 21 18 16 15 14 13 14 14 14 14 14 14 14 15 15 15 15 16 17 17 18 18 19 19 18 18 19 20 21 21 22 22 23 23 24 25 25 26 26 26 26 26 25 25 25 25 26 26
34 32 31 31 31 32 33 33 32 31 30 29 27 25 23 21 19 17 16 16 16 16 16 16 17 18 19 20 20 21 21 21 21 21 21 22 22 20 18 17 15 15 14 14 13 13 13 13 14 14 15 15 15 15 15 15 16 16 17 17 18 18 19 18 19 20 21 21 22 22 23 23 24 24 25 25 25 25 24 24 24 24 24 24 25 25
33 32 32 31 32 33 33 32 30 29 28 26 24 22 20 19 17 16 15 15 15 16 16 17 18 19 20 21 21 22 22 22 21 21 21 20 19 17 16 15 15 15 15 14 14 14 13 13 13 13 14 14 14 14 14 14 15 15 16 16 17 18 18 18 18 19 20 21 22 22 23 23 24 24 24 24 24 24 23 23 23 23 23 24 24 24
33 33 32 32 33 33 32 30 29 27 26 24 22 20 19 17 16 15 14 15 15 16 17 17 18 19 21 21 21 22 22 21 20 20 19 18 17 16 15 15 14 14 14 13 13 13 13 13 13 13 13 13 13 13 13 13 13 13 14 15 16 17 18 18 18 18 19 21 21 22 23 23 23 23 23 23 23 23 23 23 23 23 23 23 24 24
32 32 32 32 32 32 31 29 27 25 24 22 21 19 17 16 15 14 14 14 15 17 17 17 18 19 20 20 20 20 20 20 19 19 18 17 17 16 15 14 14 13 12 11 11 11 10 10 11 11 11 11 12 12 12 12 12 13 13 14 15 16 17 17 18 18 19 20 21 22 22 23 23 22 22 22 23 23 22 22 22 22 23 23 23 24
31 31 31 31 31 30 29 27 25 24 22 21 19 18 16 15 14 13 14 14 15 16 16 16 17 17 18 18 18 17 17 17 17 17 17 17 16 15 14 13 12 11 11 10 10 9 9 9 9 9 9 9 10 10 10 11 12 13 13 14 15 15 15 16 17 18 19 20 21 21 22 22 22 21 21 22 22 22 22 22 22 22 22 22 23 23
30 30 30 30 30 29 27 26 24 22 21 20 18 17 16 15 14 13 13 14 14 15 15 14 14 15 15 15 16 16 16 16 16 16 16 15 14 13 12 11 10 10 9 9 9 9 9 9 8 8 8 8 8 9 9 10 11 13 13 14 14 14 14 15 16 17 18 19 20 20 20 20 21 21 20 20 21 21 21 21 21 21 21 22 22 22
30 30 30 30 29 28 26 24 23 21 20 19 18 17 16 15 14 13 13 13 13 13 12 11 11 11 13 14 14 15 15 15 15 15 15 14 12 11 10 9 8 8 8 8 8 8 8 8 7 7 7 7 8 8 9 10 11 12 12 13 13 13 14 14 15 16 17 17 18 19 19 19 19 20 20 20 20 20 20 21 21 21 21 21 21 21
Wind_Direction
284 285 286 287 286 284 283 283 282 281 279 278 277 275 272 270 267 265 265 265 264 265 265 266 266 267 267 267 268 269 269 268 265 262 259 257 255 254 253 253 252 252 251 252 252 252 251 250 250 249 249 249 248 247 246 244 242 240 238 238 237 238 239 240 240 241 243 244 245 246 247 249 253 256 259 261 262 262 262 262 264 265 266 264 260 253
288 288 288 287 285 284 285 286 286 285 283 282 281 280 278 275 271 268 266 265 264 264 264 265 265 266 266 266 267 268 270 269 268 265 262 259 256 254 253 253 253 253 253 253 254 253 251 249 248 248 248 248 247 245 244 242 242 241 240 239 239 239 240 240 240 241 243 245 245 246 247 250 253 256 258 259 260 261 261 262 264 265 265 263 257 250
290 290 288 286 284 283 284 286 288 288 287 286 285 284 282 280 276 272 269 267 266 264 264 264 264 265 265 266 266 267 269 269 269 267 264 261 258 255 254 253 253 253 253 254 254 254 252 249 247 246 246 246 245 243 241 241 241 241 240 239 239 239 239 240 240 241 243 244 245 246 248 251 253 255 256 258 259 260 261 262 263 264 264 261 254 247
290 289 288 287 286 285 285 285 287 288 288 289 289 288 287 283 280 277 274 271 268 266 264 264 264 264 265 265 266 267 268 269 268 267 265 263 260 258 256 254 253 253 253 253 254 253 251 249 247 246 246 245 244 242 241 240 240 239 239 238 238 238 238 239 240 241 242 244 245 247 249 251 253 254 255 257 258 259 261 262 263 264 262 258 252 244
289 288 288 288 288 288 287 287 286 286 287 288 288 289 289 287 284 282 278 275 272 268 266 264 263 263 264 264 265 266 267 267 267 265 264 263 262 260 258 256 254 253 252 252 252 252 251 249 248 247 246 245 244 242 241 240 239 238 238 237 237 237 238 239 241 242 243 244 246 248 250 251 252 252 254 255 257 258 260 261 262 262 260 256 250 244
289 289 289 288 288 287 287 287 287 286 285 284 284 286 288 288 287 285 282 279 275 271 267 265 262 262 262 263 264 265 265 265 264 262 261 261 261 261 260 258 255 253 252 251 251 251 251 250 249 247 246 245 244 242 240 239 238 238 238 238 238 238 239 241 243 244 245 246 247 249 250 250 250 251 252 254 256 257 259 260 261 260 258 254 249 244
290 290 289 288 286 285 286 287 287 286 284 282 283 285 287 288 287 286 284 282 278 274 269 266 263 261 260 262 263 264 263 262 260 259 258 258 259 260 261 260 257 255 253 252 251 251 251 250 249 247 247 246 244 243 241 239 238 238 239 239 239 240 242 244 246 247 247 247 248 249 250 249 249 249 251 253 255 257 258 260 260 259 256 252 248 244
288 289 288 287 285 285 285 286 287 286 284 283 283 284 285 286 285 284 284 283 280 275 269 265 262 260 259 260 261 262 261 259 258 257 257 257 257 259 261 261 260 257 255 254 253 252 252 250 249 247 247 246 245 243 242 240 239 239 239 239 240 241 244 247 248 249 248 248 248 248 248 247 247 248 250 252 254 256 258 259 259 257 254 250 246 243
286 287 287 286 285 284 285 286 286 286 285 284 283 283 283 283 283 283 283 282 279 275 269 264 261 260 259 259 260 261 260 258 257 257 257 258 259 260 262 262 261 260 258 257 255 254 253 251 249 248 247 246 245 244 242 240 239 238 238 239 240 241 244 247 248 249 248 248 247 247 246 245 245 247 249 252 254 256 258 258 258 255 252 248 244 242
286 286 286 285 284 284 285 285 286 287 286 285 284 283 282 280 280 280 279 278 278 275 271 266 263 262 261 260 260 260 260 259 259 259 260 261 262 263 263 262 261 260 259 259 258 256 254 252 251 249 248 247 246 244 242 240 238 237 237 238 239 241 244 246 247 248 248 247 246 245 244 243 244 246 249 251 254 256 257 257 256 253 249 245 242 241
286 286 285 285 285 285 285 284 286 287 287 286 286 284 282 279 276 275 274 274 276 276 274 271 268 266 264 264 264 263 262 262 262 263 263 264 264 264 263 262 260 259 259 259 259 258 256 254 252 251 249 248 246 244 242 239 237 236 236 237 239 241 243 245 246 246 246 245 244 243 242 242 244 246 249 251 254 255 256 256 254 251 246 243 241 240
287 286 286 286 286 285 285 284 285 286 286 285 283 281 279 277 276 274 272 273 275 276 276 275 273 270 267 266 266 265 264 265 266 267 267 266 265 264 262 261 260 259 259 259 258 258 256 255 254 253 251 248 246 244 242 239 237 236 236 237 239 242 243 244 245 244 244 243 242 241 241 242 244 246 249 251 253 254 255 253 251 247 244 241 240 239
288 287 286 285 283 283 283 283 283 283 283 282 280 278 277 279 280 278 274 274 275 277 278 276 274 271 270 268 266 265 265 267 269 270 269 266 265 263 262 261 261 260 260 258 257 256 256 255 255 253 251 249 246 244 242 239 237 235 235 236 239 242 243 244 243 242 242 241 240 239 240 241 243 246 248 251 252 253 253 251 248 245 242 241 240 239
291 289 287 284 282 281 280 279 278 278 278 277 277 277 280 282 283 280 275 273 274 276 277 274 271 269 268 267 265 264 264 267 269 270 268 267 265 263 262 261 261 261 261 259 257 257 256 255 252 250 248 246 244 242 240 238 236 234 234 235 238 241 243 242 241 240 240 239 238 238 239 240 242 245 247 249 250 251 250 248 245 243 241 241 240 239
295 293 290 286 284 283 281 280 278 276 276 275 276 277 279 281 282 281 277 273 272 273 273 270 267 265 264 263 264 264 263 265 267 267 267 266 265 264 262 261 261 261 261 260 259 258 257 254 250 247 245 242 241 239 237 235 234 233 233 235 238 240 240 239 238 238 237 237 237 236 237 238 240 242 244 246 247 247 247 245 243 242 241 241 240 239
297 295 292 290 289 287 286 285 284 284 283 282 280 278 277 277 280 281 280 276 274 272 269 265 262 260 260 262 263 262 262 263 264 265 264 264 265 265 263 261 261 261 262 261 260 259 257 253 249 245 243 241 239 238 236 234 232 232 233 235 237 238 237 236 235 235 235 235 235 234 235 236 238 239 240 242 243 243 243 242 241 241 241 241 240 239
295 294 292 291 290 289 288 288 289 289 290 290 289 286 282 279 277 277 276 276 274 271 267 263 258 256 257 260 262 262 261 260 262 264 264 264 265 266 265 262 260 260 262 261 260 259 256 252 247 244 242 240 238 236 234 232 231 231 233 234 235 235 234 233 233 234 234 233 233 232 233 234 235 237 237 238 239 240 240 240 240 240 240 240 239 238
294 292 291 290 289 288 288 288 289 290 290 291 291 290 288 284 280 277 276 275 274 271 267 262 258 254 254 256 260 263 263 262 263 264 264 264 266 267 266 262 259 258 259 257 257 256 254 251 247 244 241 238 235 232 230 229 229 230 231 232 232 231 231 231 232 233 233 232 232 232 232 232 233 234 235 236 237 238 238 238 239 239 239 239 238 236
293 291 290 289 288 287 287 287 287 287 287 288 288 288 288 287 284 282 281 279 277 275 270 265 260 256 255 255 260 265 267 266 266 265 264 264 264 265 264 261 258 256 255 254 253 251 250 247 245 243 239 235 231 228 226 226 226 227 228 229 228 228 229 231 232 232 231 231 230 230 231 231 231 232 234 235 236 237 237 238 238 238 238 237 236 234
292 290 288 288 288 288 287 286 285 285 285 286 286 286 286 286 286 285 284 283 281 278 274 269 263 259 259 260 263 266 267 268 266 264 263 262 262 262 262 259 256 254 253 251 250 248 245 241 239 237 234 231 227 225 224 224 224 225 225 226 226 228 230 231 231 230 229 228 227 227 229 229 229 231 232 233 234 235 236 236 237 236 236 235 234 232
291 289 287 287 287 287 287 286 286 286 286 286 285 283 282 282 282 282 282 282 280 277 273 269 265 264 265 264 263 264 265 265 263 260 260 258 257 258 259 258 255 253 251 249 248 245 241 236 233 230 228 226 224 222 222 223 223 223 224 225 227 229 231 230 229 227 224 222 222 224 226 227 228 230 231 232 233 234 235 235 235 235 234 233 231 230
290 288 287 286 285 285 285 285 286 286 287 286 284 281 280 280 279 279 279 278 277 274 272 270 270 271 271 267 263 262 262 262 260 258 255 251 250 254 257 257 254 251 248 246 245 243 238 233 229 226 225 223 221 221 221 222 222 223 224 226 229 230 230 227 225 222 219 219 221 223 225 226 227 229 230 232 233 233 234 234 234 233 232 230 229 228
294 292 292 291 289 287 286 285 285 284 284 284 284 284 284 284 282 281 281 281 279 277 275 274 275 275 272 267 262 259 258 258 258 256 251 247 248 253 257 256 252 248 246 244 242 240 237 231 227 224 223 221 221 221 221 221 222 224 226 229 230 229 227 224 220 217 216 218 221 222 224 225 227 228 230 231 232 233 233 233 232 230 229 227 227 227
300 298 298 296 294 291 289 287 285 283 282 282 282 283 283 283 283 283 283 283 282 281 278 277 275 271 268 264 259 255 255 255 255 253 250 248 250 253 256 254 250 246 244 242 240 237 234 231 227 224 222 221 220 220 221 222 224 226 229 230 229 227 224 221 217 215 216 218 220 221 223 225 226 228 229 230 232 232 232 231 229 227 225 224 224 225
303 301 299 297 295 293 290 288 286 284 283 282 282 281 280 280 279 279 278 279 280 281 281 278 272 267 264 260 256 253 254 255 255 253 251 249 249 251 252 252 248 244 241 240 238 235 232 230 228 225 222 221 220 221 222 224 227 229 230 229 227 224 222 218 215 214 215 217 219 221 223 224 226 227 229 230 231 231 230 228 227 224 222 221 222 224
307 304 302 300 297 295 292 289 287 285 284 283 282 282 282 282 281 280 279 278 278 279 280 276 270 265 263 259 255 254 256 258 257 255 251 247 244 245 248 249 247 241 236 235 234 232 229 228 227 226 223 221 221 222 224 227 229 229 228 226 223 221 218 215 213 213 215 217 219 221 222 224 225 227 229 230 230 229 227 226 224 222 220 219 220 223
308 306 304 301 299 297 295 292 290 288 286 285 284 284 285 286 286 285 283 280 278 278 278 272 267 264 261 258 256 256 258 258 256 254 250 244 239 239 244 246 244 237 231 230 230 229 227 226 226 226 225 224 224 225 226 227 227 226 224 222 219 217 213 211 210 212 215 217 219 221 222 224 226 227 229 229 228 227 225 223 222 221 220 220 221 223
308 305 303 302 300 298 296 295 293 291 290 288 287 287 288 289 287 285 282 281 280 278 275 269 264 261 258 257 257 259 259 256 253 251 248 241 235 235 241 244 241 233 225 223 225 226 225 225 227 228 228 227 226 225 224 224 222 221 219 217 214 211 207 207 209 212 215 217 220 221 223 225 226 227 228 228 226 224 223 222 221 221 222 223 225 227
305 304 303 301 300 299 298 297 296 294 293 291 289 288 287 288 286 284 282 281 281 278 272 268 264 261 258 258 257 257 255 252 251 249 246 238 233 234 240 239 236 229 220 215 217 220 221 224 227 229 228 226 224 221 220 218 217 216 214 212 208 205 205 207 210 213 216 218 220 222 224 225 226 227 227 226 225 223 221 221 222 223 225 227 229 232
303 303 303 302 301 300 299 299 297 295 293 291 288 286 285 285 284 284 283 283 281 277 271 268 265 262 258 254 251 249 249 251 251 250 245 236 232 234 237 234 230 224 217 210 208 211 216 222 225 225 223 220 217 215 214 214 213 211 209 205 203 203 205 208 211 214 217 219 220 222 223 224 224 225 226 226 224 223 222 222 223 225 228 231 233 235
303 303 303 302 302 301 300 298 296 294 291 289 286 284 284 284 284 285 286 285 282 277 272 269 266 262 256 249 243 242 247 252 254 253 247 238 234 234 235 228 224 222 220 213 207 206 210 216 219 218 214 212 211 210 211 211 210 208 205 202 201 203 206 208 212 214 217 218 220 221 222 222 222 223 225 225 225 224 223 223 225 228 232 235 237 239
303 303 303 302 302 300 299 297 295 293 291 288 286 285 285 287 288 289 290 287 282 277 272 269 266 262 257 251 246 246 250 255 257 256 250 239 233 232 232 225 220 218 220 218 215 211 206 207 209 209 206 205 206 207 208 208 208 206 204 202 202 204 207 209 212 214 216 217 219 220 220 220 221 222 224 225 225 225 225 225 226 229 234 237 239 241
305 304 303 302 301 299 298 296 295 293 292 290 289 289 291 292 294 294 293 290 284 277 270 266 263 259 256 254 251 251 252 255 258 258 253 240 229 225 226 223 218 215 216 215 216 215 210 206 203 201 199 200 202 204 205 205 205 204 203 202 203 206 209 212 215 217 218 218 218 218 218 218 219 221 223 225 226 226 226 227 228 229 233 236 239 242
306 305 303 302 301 300 298 297 296 295 295 296 297 298 299 300 300 299 298 295 289 280 271 263 258 254 253 251 249 248 249 252 256 258 254 243 230 224 224 220 217 215 213 210 209 209 209 206 201 196 194 196 199 201 201 202 202 202 202 203 206 208 212 215 218 221 222 223 221 219 215 214 215 217 219 221 223 224 225 227 228 229 231 235 238 241
308 306 306 305 305 304 302 300 299 300 301 304 306 307 307 306 305 304 302 299 293 285 276 267 260 254 250 249 247 246 248 253 257 259 257 248 237 229 224 219 218 216 211 207 204 203 202 202 199 195 193 193 195 198 199 200 200 201 202 205 208 212 215 218 221 223 224 225 225 222 219 217 216 217 219 220 221 222 224 225 225 226 228 232 236 239
312 311 310 310 310 310 308 306 306 307 309 311 312 312 311 310 308 306 303 300 295 288 280 272 264 257 252 249 248 249 252 257 260 262 261 256 245 232 223 219 219 216 210 206 202 200 197 196 194 194 193 192 192 194 197 199 200 201 203 206 210 214 218 220 222 223 224 224 224 224 223 223 223 223 224 225 226 227 227 227 226 225 224 227 231 236
314 313 313 313 314 314 314 312 312 313 315 316 316 315 313 311 308 306 303 300 296 290 283 274 267 261 256 253 251 252 255 259 261 263 263 258 246 231 221 219 218 216 210 204 201 200 198 194 190 188 190 192 194 194 195 197 199 201 204 208 212 215 218 219 220 221 222 222 223 223 225 226 228 229 230 232 233 234 234 233 231 228 226 226 228 232
315 314 314 315 316 317 318 318 318 317 318 318 317 315 313 310 308 305 302 300 296 292 285 278 271 264 260 256 255 254 255 256 258 259 258 250 237 225 219 216 214 212 208 205 203 202 202 199 193 186 186 191 195 197 197 197 199 201 205 208 211 214 217 218 218 219 220 221 223 224 225 227 229 231 233 234 235 236 237 237 236 234 232 230 230 232
315 314 315 316 318 320 321 321 320 320 320 318 316 314 311 309 307 304 301 298 294 290 286 280 274 268 263 259 257 254 252 250 249 249 246 238 228 220 216 212 210 207 205 205 206 208 210 210 206 198 191 189 192 195 197 199 200 202 205 207 210 213 215 216 217 219 221 222 223 225 226 228 229 231 232 233 234 235 236 237 237 237 236 236 235 236
317 316 316 318 319 321 322 322 321 321 320 317 315 313 310 307 304 301 298 295 291 288 284 280 275 270 264 259 254 249 244 239 236 234 232 226 220 214 211 209 207 205 203 203 207 211 215 216 214 209 202 193 190 192 195 198 199 201 204 207 209 212 213 215 218 220 221 223 224 226 227 228 229 231 232 233 234 235 236 236 236 237 237 237 237 237
318 318 319 320 322 324 325 325 324 322 319 316 312 309 306 303 299 296 293 290 287 283 280 276 271 266 260 253 246 237 229 223 220 219 218 214 210 205 202 202 203 203 202 201 201 200 199 195 192 192 194 194 192 191 193 195 198 201 204 208 210 212 214 216 219 220 222 223 224 225 227 228 229 231 232 233 234 235 235 236 236 235 235 236 236 236
320 321 322 324 326 328 328 327 324 321 318 313 309 305 302 299 295 290 286 282 278 274 271 265 258 251 242 232 223 214 206 201 200 202 204 203 200 197 194 193 193 192 191 188 185 181 176 172 173 180 188 192 192 192 192 194 198 202 206 210 212 214 216 219 220 221 222 223 224 225 226 228 229 231 232 233 234 234 234 234 234 233 233 233 233 233
323 324 326 328 330 331 330 328 324 319 315 310 306 302 299 295 290 283 277 271 266 260 254 247 240 231 219 205 192 182 177 176 178 183 191 194 194 193 193 193 191 187 181 175 170 167 167 168 171 180 188 193 194 194 193 195 199 203 206 209 210 212 215 219 221 221 222 223 224 225 227 228 229 230 231 232 232 232 232 231 230 230 230 230 231 232
326 327 329 332 334 333 331 326 322 316 312 306 302 298 294 288 281 273 265 259 253 245 234 226 220 214 203 187 173 163 160 160 162 167 176 182 187 190 192 191 187 180 171 166 163 163 166 170 175 181 186 190 193 193 193 196 199 202 204 206 207 209 212 217 220 221 222 223 225 226 227 227 228 228 229 229 229 229 229 228 228 228 228 229 230 231
327 329 332 334 334 332 327 322 318 313 308 302 297 292 286 279 271 261 252 244 237 227 215 208 202 194 183 173 164 158 154 155 157 161 166 172 178 181 183 180 174 166 161 160 162 168 174 177 181 184 187 189 191 192 192 194 196 198 201 203 205 207 211 215 218 219 220 222 223 223 224 224 225 225 226 227 227 227 227 226 226 227 227 229 230 232
329 331 333 334 333 329 324 320 315 309 303 297 292 286 279 271 262 252 242 233 221 209 200 196 191 182 172 165 160 157 154 154 156 158 161 165 168 170 169 165 160 157 157 161 166 172 177 182 184 187 188 189 190 191 192 193 195 197 199 202 205 207 210 214 216 217 216 217 217 219 220 221 222 223 224 225 225 226 226 226 226 227 228 229 231 233
331 333 334 333 330 326 322 317 311 304 296 290 285 280 273 264 254 243 233 223 211 199 191 188 186 180 171 164 159 157 155 154 155 156 157 157 157 156 154 152 152 154 160 167 173 179 183 186 188 188 188 188 189 189 190 192 194 197 200 204 207 209 210 212 213 213 212 211 212 214 217 218 220 221 222 224 224 225 225 226 227 227 229 230 232 234
332 333 334 332 328 323 318 313 306 299 291 285 280 274 268 258 247 234 223 214 204 194 187 184 182 178 169 162 158 157 155 153 152 151 151 150 149 147 147 148 151 157 165 173 179 184 188 190 191 190 189 187 187 187 189 193 196 198 202 207 210 211 210 209 209 209 208 207 209 212 214 217 219 220 222 224 225 225 226 226 227 228 230 231 233 235
334 335 334 331 326 320 315 309 302 295 287 281 274 268 262 254 243 230 218 209 200 193 187 184 181 175 165 157 153 152 151 149 147 145 144 143 142 143 145 149 157 164 171 176 180 182 184 185 186 187 188 189 189 189 190 195 199 202 206 209 210 209 206 205 206 206 205 205 207 211 214 217 219 221 224 226 227 228 228 228 229 230 231 233 235 237
336 336 334 330 324 318 313 307 300 291 284 278 271 263 256 250 241 231 220 210 202 195 190 186 180 171 159 151 147 145 144 142 140 138 138 137 138 141 146 153 161 167 171 174 176 178 179 181 183 184 187 191 194 195 195 198 202 206 208 209 209 206 203 201 203 205 204 205 208 212 215 218 221 224 227 229 231 232 233 232 231 232 233 235 237 238
337 337 334 329 323 318 313 306 298 289 282 275 269 262 254 246 238 229 221 212 205 198 191 184 175 163 151 143 140 139 137 136 134 133 132 133 136 141 148 155 161 165 168 170 172 174 176 179 184 192 199 201 203 204 203 202 205 207 208 208 208 206 202 201 204 206 207 208 211 215 218 221 224 228 231 234 237 239 239 238 236 236 236 237 239 240
Height
1324 1322 1322 1322 1321 1320 1318 1319 1319 1319 1317 1317 1317 1316 1315 1314 1314 1313 1312 1312 1311 1310 1310 1310 1309 1309 1309 1309 1309 1309 1310 1311 1311 1312 1312 1312 1312 1312 1313 1313 1313 1313 1314 1314 1315 1316 1317 1318 1319 1320 1321 1322 1323 1324 1324 1325 1326 1327 1328 1328 1329 1329 1329 1330 1331 1332 1332 1332 1333 1333 1334 1335 1336 1336 1336 1337 1337 1338 1338 1339 1339 1340 1340 1341 1341 1342
1321 1319 1319 1318 1318 1316 1314 1314 1315 1315 1314 1313 1313 1313 1313 1312 1310 1309 1309 1308 1308 1307 1306 1306 1305 1305 1305 1305 1305 1306 1306 1306 1307 1308 1309 1309 1309 1309 1309 1309 1310 1310 1310 1311 1311 1312 1314 1315 1316 1317 1318 1319 1319 1320 1320 1321 1322 1323 1324 1324 1325 1325 1326 1327 1328 1328 1329 1329 1329 1330 1331 1332 1333 1333 1333 1334 1334 1335 1335 1336 1336 1337 1337 1338 1339 1339
1319 1317 1315 1315 1314 1313 1311 1310 1310 1311 1310 1309 1309 1309 1309 1308 1307 1306 1305 1304 1304 1303 1303 1302 1302 1301 1301 1301 1301 1302 1302 1302 1303 1304 1304 1304 1305 1305 1305 1306 1306 1306 1307 1307 1308 1309 1310 1311 1312 1313 1314 1315 1315 1316 1317 1318 1318 1319 1320 1321 1322 1322 1323 1324 1324 1325 1325 1325 1326 1327 1328 1329 1329 1330 1330 1331 1331 1332 1332 1333 1334 1334 1334 1335 1336 1337
1317 1315 1313 1312 1312 1310 1308 1307 1307 1307 1306 1306 1306 1306 1306 1305 1304 1302 1301 1300 1300 1299 1299 1298 1298 1297 1297 1297 1297 1298 1298 1298 1299 1299 1300 1300 1301 1301 1301 1302 1302 1302 1303 1303 1304 1305 1306 1307 1308 1309 1310 1310 1312 1312 1313 1314 1314 1315 1316 1317 1318 1319 1319 1320 1321 1321 1322 1322 1323 1324 1324 1325 1326 1326 1327 1328 1328 1329 1329 1330 1330 1331 1332 1333 1334 1334
1314 1313 1311 1310 1309 1307 1305 1305 1304 1303 1303 1302 1302 1302 1302 1301 1300 1299 1298 1297 1296 1295 1294 1294 1294 1294 1293 1293 1293 1293 1294 1294 1294 1295 1295 1296 1297 1297 1298 1298 1298 1298 1299 1299 1300 1301 1302 1303 1304 1304 1305 1306 1307 1308 1309 1310 1310 1311 1312 1313 1314 1315 1316 1317 1317 1318 1319 1319 1319 1320 1321 1322 1323 1323 1324 1324 1325 1326 1326 1327 1327 1328 1329 1329 1330 1331
1311 1310 1309 1308 1306 1304 1302 1302 1301 1301 1300 1299 1298 1298 1298 1297 1296 1295 1294 1294 1293 1292 1291 1290 1290 1289 1289 1289 1288 1289 1289 1289 1290 1291 1291 1292 1293 1293 1293 1293 1293 1294 1295 1296 1296 1297 1298 1298 1299 1300 1301 1302 1303 1304 1305 1306 1306 1307 1308 1309 1309 1310 1311 1313 1314 1314 1315 1316 1316 1317 1318 1319 1319 1320 1320 1321 1322 1323 1323 1324 1324 1325 1326 1327 1328 1329
1308 1307 1307 1305 1303 1301 1300 1299 1298 1298 1298 1296 1294 1294 1294 1293 1292 1291 1290 1289 1289 1288 1287 1286 1286 1285 1284 1284 1284 1284 1285 1285 1286 1286 1287 1288 1288 1289 1289 1289 1289 1290 1291 1291 1292 1293 1294 1294 1295 1296 1297 1298 1299 1300 1301 1302 1302 1303 1304 1304 1305 1307 1308 1309 1310 1311 1311 1312 1313 1314 1315 1315 1316 1317 1317 1318 1319 1319 1320 1321 1322 1322 1323 1324 1324 1325
1305 1303 1304 1303 1301 1299 1297 1296 1295 1295 1295 1294 1292 1291 1290 1289 1288 1287 1286 1285 1285 1284 1283 1282 1281 1280 1280 1280 1280 1280 1280 1281 1281 1282 1283 1283 1284 1284 1285 1285 1286 1286 1287 1287 1288 1289 1289 1290 1290 1291 1293 1294 1294 1295 1296 1297 1298 1299 1300 1301 1302 1303 1304 1305 1306 1307 1308 1309 1310 1311 1312 1312 1313 1314 1314 1315 1316 1317 1318 1318 1319 1319 1320 1321 1322 1323
1303 1300 1299 1299 1299 1297 1294 1292 1292 1292 1292 1291 1290 1289 1287 1285 1284 1283 1283 1281 1280 1280 1279 1278 1277 1276 1275 1276 1276 1276 1276 1276 1277 1278 1278 1279 1280 1280 1281 1281 1282 1282 1282 1283 1284 1284 1285 1285 1286 1288 1289 1290 1290 1291 1292 1292 1293 1294 1296 1297 1298 1299 1300 1301 1302 1303 1304 1305 1306 1308 1309 1309 1310 1310 1311 1312 1313 1314 1314 1315 1316 1317 1318 1319 1319 1320
1301 1299 1297 1295 1295 1294 1292 1289 1287 1288 1289 1288 1287 1286 1285 1283 1281 1280 1279 1277 1276 1275 1275 1274 1273 1272 1271 1272 1272 1272 1272 1273 1273 1274 1275 1275 1276 1276 1277 1277 1277 1278 1278 1278 1279 1280 1280 1281 1282 1284 1284 1285 1286 1287 1287 1288 1289 1290 1291 1293 1294 1295 1296 1297 1298 1299 1300 1301 1303 1304 1305 1306 1306 1307 1308 1309 1309 1311 1312 1313 1314 1314 1315 1316 1317 1317
1298 1297 1295 1293 1291 1291 1289 1287 1284 1284 1285 1285 1283 1282 1281 1280 1279 1278 1276 1273 1272 1271 1271 1270 1269 1268 1268 1268 1268 1269 1269 1269 1269 1270 1271 1272 1272 1272 1272 1273 1273 1273 1274 1274 1275 1275 1276 1276 1277 1278 1280 1281 1282 1282 1283 1284 1284 1286 1287 1289 1291 1292 1293 1294 1294 1295 1296 1298 1299 1301 1302 1302 1303 1304 1305 1306 1307 1308 1309 1310 1311 1312 1313 1314 1314 1315
1295 1294 1292 1290 1289 1287 1286 1284 1283 1282 1282 1281 1280 1278 1276 1276 1276 1275 1273 1270 1268 1268 1267 1265 1264 1263 1263 1263 1264 1265 1266 1266 1266 1266 1267 1267 1268 1268 1268 1268 1268 1269 1269 1270 1270 1271 1271 1272 1273 1274 1275 1276 1277 1278 1278 1279 1280 1281 1283 1285 1287 1288 1289 1290 1291 1292 1293 1294 1296 1297 1298 1299 1299 1300 1302 1303 1304 1305 1306 1308 1309 1309 1310 1311 1312 1312
1293 1291 1289 1287 1286 1284 1283 1281 1280 1279 1278 1278 1277 1275 1273 1273 1273 1272 1270 1267 1265 1264 1263 1262 1260 1258 1258 1259 1260 1261 1262 1262 1262 1263 1263 1263 1263 1263 1263 1263 1263 1264 1265 1265 1266 1266 1267 1268 1269 1270 1271 1271 1272 1273 1274 1274 1275 1277 1278 1280 1283 1284 1285 1286 1287 1289 1290 1291 1293 1294 1294 1295 1296 1297 1299 1299 1301 1302 1304 1305 1306 1307 1308 1309 1309 1310
1291 1289 1287 1284 1283 1281 1280 1279 1277 1276 1275 1275 1274 1272 1270 1270 1269 1269 1267 1264 1262 1261 1260 1259 1257 1255 1254 1254 1255 1257 1258 1259 1259 1259 1258 1258 1258 1259 1259 1259 1259 1259 1260 1261 1261 1262 1263 1264 1265 1266 1267 1267 1268 1269 1269 1270 1271 1272 1274 1276 1278 1279 1281 1282 1284 1286 1287 1288 1289 1290 1291 1292 1293 1294 1296 1297 1298 1300 1301 1303 1304 1305 1305 1306 1307 1307
1289 1287 1285 1283 1281 1279 1278 1276 1274 1273 1271 1271 1270 1269 1268 1266 1265 1265 1264 1262 1259 1258 1258 1255 1253 1252 1251 1250 1252 1253 1255 1256 1256 1255 1254 1253 1253 1254 1255 1255 1255 1255 1256 1257 1257 1258 1259 1260 1261 1261 1263 1263 1264 1265 1266 1266 1267 1269 1271 1273 1274 1275 1277 1278 1280 1282 1284 1285 1286 1286 1287 1289 1290 1292 1293 1294 1296 1298 1299 1300 1301 1302 1303 1303 1304 1305
1287 1285 1283 1280 1278 1277 1276 1275 1273 1271 1270 1269 1268 1267 1265 1263 1262 1262 1261 1259 1258 1257 1255 1253 1251 1249 1247 1247 1248 1249 1250 1252 1252 1252 1251 1249 1249 1250 1251 1251 1251 1252 1252 1253 1253 1254 1255 1256 1257 1257 1258 1259 1259 1260 1261 1262 1263 1265 1267 1269 1270 1272 1273 1275 1277 1279 1281 1282 1283 1283 1284 1286 1287 1289 1291 1293 1294 1295 1297 1298 1299 1299 1300 1301 1302 1303
1284 1283 1280 1278 1276 1274 1273 1272 1271 1269 1268 1267 1267 1265 1264 1262 1260 1259 1258 1256 1255 1254 1252 1251 1249 1247 1245 1243 1243 1244 1246 1247 1248 1248 1248 1246 1246 1246 1247 1247 1247 1247 1248 1249 1249 1249 1251 1251 1252 1253 1254 1255 1256 1257 1258 1259 1260 1262 1263 1265 1267 1268 1270 1273 1274 1276 1278 1278 1279 1280 1282 1283 1285 1287 1289 1290 1292 1293 1294 1295 1296 1297 1298 1299 1299 1300
1282 1280 1278 1276 1273 1271 1270 1269 1268 1267 1266 1265 1263 1263 1262 1260 1258 1257 1255 1254 1253 1251 1249 1248 1246 1245 1243 1241 1239 1239 1241 1243 1244 1244 1245 1243 1243 1242 1243 1243 1243 1243 1244 1244 1244 1245 1246 1247 1248 1248 1250 1252 1253 1254 1255 1256 1258 1259 1261 1262 1264 1266 1268 1270 1272 1273 1275 1276 1277 1278 1279 1280 1282 1284 1286 1288 1289 1291 1292 1293 1294 1295 1295 1296 1297 1298
1279 1278 1276 1273 1271 1269 1268 1267 1265 1264 1263 1262 1261 1260 1258 1257 1256 1255 1253 1252 1250 1249 1247 1245 1243 1241 1240 1238 1237 1236 1237 1239 1240 1241 1241 1239 1238 1238 1238 1239 1240 1240 1240 1240 1241 1241 1242 1242 1243 1244 1246 1248 1250 1252 1253 1254 1255 1256 1258 1259 1261 1263 1266 1268 1269 1271 1272 1273 1274 1275 1276 1278 1280 1282 1284 1286 1287 1289 1290 1291 1291 1292 1293 1294 1295 1296
1277 1275 1273 1272 1269 1267 1265 1264 1263 1262 1261 1260 1259 1258 1256 1254 1253 1252 1250 1249 1248 1246 1244 1242 1240 1237 1236 1235 1235 1234 1234 1234 1236 1236 1236 1235 1234 1234 1233 1235 1236 1237 1237 1237 1237 1238 1239 1239 1240 1241 1243 1245 1247 1248 1250 1251 1252 1254 1255 1258 1260 1262 1264 1266 1267 1268 1270 1270 1271 1273 1274 1276 1278 1280 1282 1283 1285 1286 1287 1288 1289 1290 1291 1292 1293 1294
1275 1272 1270 1269 1268 1266 1263 1261 1260 1259 1259 1258 1256 1254 1252 1251 1249 1248 1247 1246 1245 1243 1241 1239 1236 1234 1233 1233 1233 1232 1230 1230 1231 1231 1231 1231 1230 1230 1229 1231 1232 1233 1233 1234 1234 1235 1236 1237 1237 1238 1240 1242 1243 1245 1247 1248 1249 1251 1253 1256 1258 1260 1262 1264 1265 1266 1267 1268 1269 1270 1272 1273 1276 1278 1279 1281 1283 1284 1285 1286 1287 1288 1289 1289 1291 1292
1272 1268 1266 1266 1265 1263 1260 1258 1257 1256 1256 1255 1253 1251 1249 1248 1246 1244 1243 1243 1241 1239 1237 1235 1233 1231 1231 1231 1230 1228 1226 1226 1227 1227 1228 1228 1227 1226 1226 1227 1228 1229 1230 1230 1230 1231 1232 1234 1235 1236 1238 1239 1241 1242 1243 1245 1247 1249 1252 1254 1257 1258 1260 1262 1263 1264 1265 1266 1267 1268 1270 1272 1273 1276 1278 1279 1280 1281 1282 1283 1284 1285 1286 1287 1289 1289
1269 1265 1262 1261 1260 1259 1257 1256 1254 1253 1253 1252 1250 1248 1247 1246 1244 1242 1240 1239 1238 1236 1233 1231 1230 1229 1228 1228 1227 1225 1223 1223 1223 1224 1225 1225 1223 1223 1222 1223 1225 1226 1226 1227 1227 1227 1229 1231 1232 1234 1236 1237 1238 1240 1241 1243 1245 1248 1250 1253 1255 1256 1258 1259 1260 1262 1263 1263 1265 1266 1268 1270 1272 1274 1276 1277 1278 1279 1280 1281 1282 1283 1284 1285 1286 1287
1265 1262 1259 1258 1256 1255 1254 1253 1251 1250 1249 1248 1247 1246 1244 1243 1241 1239 1238 1236 1235 1233 1231 1229 1227 1226 1224 1224 1223 1222 1220 1220 1221 1222 1223 1222 1221 1220 1219 1220 1221 1223 1223 1223 1223 1224 1226 1228 1230 1232 1234 1235 1236 1238 1239 1241 1244 1246 1248 1250 1252 1254 1255 1257 1258 1259 1260 1262 1263 1265 1267 1268 1270 1272 1274 1275 1276 1277 1278 1278 1280 1281 1282 1283 1284 1285
1261 1258 1256 1254 1253 1251 1250 1249 1248 1246 1245 1244 1243 1242 1240 1238 1237 1235 1233 1232 1231 1230 1229 1227 1224 1222 1220 1220 1219 1218 1218 1218 1219 1219 1219 1219 1218 1217 1216 1216 1218 1220 1220 1221 1221 1221 1223 1225 1227 1229 1231 1233 1234 1236 1238 1240 1242 1244 1246 1248 1250 1252 1253 1254 1256 1257 1258 1260 1262 1263 1265 1267 1269 1270 1272 1273 1273 1274 1275 1276 1278 1279 1280 1281 1282 1284
1257 1255 1253 1251 1249 1247 1246 1245 1243 1243 1242 1241 1240 1238 1237 1235 1233 1231 1229 1227 1227 1226 1225 1223 1220 1218 1217 1216 1216 1215 1215 1216 1216 1216 1216 1216 1216 1215 1213 1213 1215 1217 1218 1218 1218 1219 1221 1223 1225 1227 1229 1231 1233 1235 1237 1238 1241 1243 1244 1246 1248 1249 1250 1252 1253 1255 1257 1259 1260 1262 1264 1266 1267 1268 1269 1270 1271 1272 1273 1274 1275 1277 1278 1279 1280 1282
1253 1251 1249 1247 1245 1243 1242 1241 1240 1238 1238 1237 1236 1235 1234 1233 1230 1227 1224 1222 1222 1222 1221 1219 1216 1214 1213 1213 1212 1212 1212 1212 1212 1212 1212 1213 1213 1212 1210 1211 1213 1215 1216 1216 1216 1217 1219 1221 1223 1224 1227 1229 1231 1233 1235 1237 1239 1240 1242 1243 1245 1246 1248 1250 1252 1254 1256 1258 1259 1261 1263 1264 1265 1266 1267 1268 1269 1270 1271 1273 1273 1275 1276 1277 1278 1279
1249 1247 1245 1243 1242 1240 1238 1237 1236 1234 1233 1232 1231 1231 1231 1230 1227 1223 1220 1218 1218 1218 1216 1214 1213 1212 1210 1209 1208 1208 1208 1208 1208 1208 1209 1210 1210 1209 1208 1209 1210 1212 1214 1214 1215 1216 1218 1219 1221 1223 1226 1228 1230 1232 1233 1235 1237 1238 1240 1241 1243 1244 1246 1248 1251 1253 1254 1256 1258 1259 1261 1262 1263 1264 1265 1266 1267 1268 1269 1270 1272 1273 1274 1275 1276 1277
1245 1243 1242 1240 1238 1237 1235 1233 1232 1231 1229 1228 1228 1227 1226 1226 1223 1220 1216 1215 1215 1214 1212 1210 1209 1208 1207 1206 1205 1205 1204 1204 1204 1205 1206 1207 1208 1207 1207 1208 1209 1210 1212 1213 1214 1215 1217 1219 1221 1222 1224 1226 1228 1230 1232 1233 1235 1236 1238 1239 1241 1243 1245 1247 1249 1251 1253 1254 1256 1258 1259 1260 1261 1262 1263 1264 1265 1266 1268 1269 1270 1271 1272 1273 1274 1275
1241 1239 1237 1236 1234 1233 1232 1230 1228 1227 1226 1225 1223 1223 1222 1221 1218 1216 1213 1213 1212 1211 1208 1207 1206 1205 1205 1204 1203 1202 1200 1200 1201 1203 1203 1205 1205 1205 1205 1206 1207 1208 1209 1211 1213 1215 1216 1218 1219 1220 1222 1224 1226 1228 1229 1231 1232 1234 1235 1237 1239 1241 1243 1245 1247 1249 1251 1253 1254 1256 1257 1258 1259 1261 1262 1263 1263 1265 1266 1267 1268 1269 1270 1271 1272 1273
1237 1235 1233 1231 1230 1229 1228 1227 1226 1224 1222 1221 1219 1218 1217 1216 1214 1213 1211 1210 1209 1207 1205 1203 1203 1202 1202 1201 1200 1198 1197 1197 1198 1200 1201 1202 1203 1203 1203 1204 1205 1205 1206 1208 1211 1213 1214 1215 1216 1218 1220 1222 1224 1226 1228 1229 1230 1232 1233 1235 1238 1240 1242 1244 1246 1248 1249 1251 1253 1254 1255 1257 1258 1259 1260 1261 1262 1263 1264 1265 1267 1267 1268 1269 1270 1271
1234 1232 1230 1228 1227 1226 1225 1223 1222 1220 1218 1217 1215 1214 1213 1211 1210 1209 1208 1207 1206 1204 1203 1201 1200 1199 1198 1198 1197 1195 1194 1194 1195 1197 1198 1200 1200 1201 1201 1202 1203 1204 1205 1208 1209 1210 1211 1212 1213 1215 1218 1220 1222 1224 1226 1227 1229 1230 1232 1234 1236 1238 1240 1242 1244 1246 1248 1249 1251 1252 1254 1255 1256 1257 1258 1259 1260 1261 1263 1264 1265 1266 1266 1267 1268 1268
1231 1229 1228 1226 1224 1223 1221 1220 1218 1216 1214 1213 1211 1210 1208 1207 1206 1205 1204 1203 1203 1202 1200 1199 1198 1197 1196 1195 1194 1193 1193 1192 1193 1194 1195 1197 1198 1199 1199 1201 1202 1203 1205 1206 1208 1208 1208 1209 1210 1213 1216 1218 1220 1222 1224 1226 1228 1229 1231 1233 1235 1237 1239 1241 1243 1244 1246 1247 1249 1250 1252 1253 1254 1256 1257 1258 1259 1260 1261 1262 1263 1264 1265 1265 1266 1267
1229 1227 1225 1223 1221 1219 1218 1216 1215 1213 1211 1209 1208 1206 1205 1203 1203 1201 1200 1200 1199 1199 1198 1197 1196 1195 1194 1193 1193 1192 1192 1191 1191 1192 1193 1194 1196 1197 1198 1199 1200 1202 1203 1204 1205 1207 1207 1208 1209 1211 1214 1217 1219 1221 1223 1225 1227 1228 1230 1232 1234 1236 1238 1239 1241 1243 1244 1245 1247 1248 1250 1251 1253 1253 1255 1256 1257 1258 1259 1260 1262 1263 1263 1264 1264 1265
1227 1224 1222 1220 1218 1216 1214 1213 1211 1209 1208 1206 1204 1203 1202 1200 1199 1198 1197 1197 1196 1196 1195 1194 1194 1193 1192 1191 1191 1190 1190 1189 1190 1191 1192 1193 1194 1195 1197 1197 1198 1199 1201 1202 1203 1205 1206 1208 1209 1211 1213 1216 1218 1220 1222 1224 1226 1228 1229 1231 1233 1235 1236 1238 1240 1241 1243 1244 1245 1247 1248 1249 1250 1251 1252 1253 1255 1256 1257 1258 1260 1261 1262 1263 1263 1263
1225 1222 1220 1218 1216 1214 1212 1209 1208 1206 1204 1203 1202 1200 1199 1198 1197 1196 1195 1194 1193 1193 1193 1192 1192 1191 1190 1189 1189 1189 1188 1189 1189 1190 1191 1192 1193 1194 1195 1195 1196 1197 1198 1200 1202 1203 1205 1207 1209 1211 1213 1215 1217 1219 1221 1223 1225 1227 1228 1230 1232 1233 1235 1237 1238 1240 1241 1243 1244 1245 1246 1247 1248 1249 1250 1251 1253 1253 1255 1256 1257 1258 1259 1261 1261 1261
1223 1220 1218 1216 1214 1212 1209 1207 1205 1203 1202 1200 1199 1198 1197 1195 1194 1193 1193 1192 1191 1191 1190 1190 1189 1189 1188 1188 1188 1188 1188 1188 1189 1190 1190 1191 1192 1193 1193 1194 1195 1196 1197 1199 1201 1203 1204 1207 1209 1211 1213 1215 1216 1218 1220 1222 1224 1226 1227 1229 1230 1232 1234 1235 1237 1238 1239 1241 1242 1243 1244 1246 1247 1248 1249 1250 1251 1252 1253 1254 1255 1256 1257 1258 1259 1259
1222 1219 1216 1214 1212 1210 1208 1205 1203 1201 1200 1198 1197 1196 1194 1193 1193 1191 1190 1190 1189 1188 1188 1188 1187 1187 1187 1187 1187 1187 1187 1188 1188 1189 1190 1190 1191 1191 1192 1193 1194 1196 1197 1199 1200 1202 1204 1206 1208 1210 1212 1214 1215 1217 1219 1221 1223 1224 1226 1228 1229 1231 1233 1234 1236 1237 1238 1239 1240 1242 1243 1244 1245 1246 1247 1248 1249 1250 1251 1252 1253 1254 1255 1256 1256 1257
1220 1218 1215 1212 1210 1208 1206 1203 1201 1200 1198 1197 1195 1194 1193 1192 1191 1190 1189 1188 1187 1187 1186 1186 1185 1185 1185 1185 1185 1186 1186 1187 1187 1188 1188 1189 1189 1190 1191 1192 1194 1196 1198 1200 1202 1203 1205 1207 1208 1209 1211 1213 1214 1217 1218 1220 1222 1223 1225 1227 1229 1230 1232 1233 1234 1235 1237 1238 1239 1240 1241 1242 1243 1244 1245 1246 1247 1248 1249 1250 1251 1252 1253 1253 1254 1255
1219 1216 1213 1211 1208 1206 1204 1202 1200 1198 1197 1195 1194 1193 1191 1190 1189 1188 1188 1187 1186 1185 1184 1184 1183 1183 1183 1183 1184 1184 1185 1185 1186 1187 1187 1188 1188 1189 1191 1193 1195 1197 1199 1201 1203 1205 1206 1207 1208 1209 1211 1212 1214 1216 1218 1219 1221 1223 1224 1226 1228 1229 1231 1232 1233 1234 1235 1236 1237 1238 1239 1240 1242 1243 1243 1244 1245 1246 1247 1248 1248 1249 1250 1251 1252 1253
1217 1214 1211 1208 1206 1204 1202 1200 1198 1197 1195 1194 1193 1191 1190 1189 1188 1188 1187 1186 1185 1184 1183 1183 1182 1182 1182 1182 1183 1183 1183 1184 1185 1185 1186 1187 1188 1190 1193 1195 1197 1199 1200 1202 1203 1204 1206 1207 1208 1209 1211 1213 1214 1216 1218 1219 1221 1223 1224 1225 1227 1228 1229 1231 1232 1233 1234 1235 1236 1237 1238 1239 1240 1241 1241 1242 1243 1244 1245 1246 1247 1248 1248 1249 1250 1250
1216 1213 1210 1207 1204 1202 1200 1198 1197 1195 1194 1193 1191 1190 1189 1188 1188 1187 1186 1185 1184 1183 1183 1182 1181 1181 1181 1181 1182 1182 1183 1183 1184 1185 1186 1188 1190 1192 1194 1196 1197 1198 1199 1201 1202 1203 1205 1206 1208 1209 1211 1213 1214 1216 1218 1219 1221 1222 1223 1225 1226 1228 1229 1230 1230 1231 1232 1233 1234 1235 1236 1237 1238 1239 1239 1240 1241 1242 1243 1243 1244 1245 1246 1247 1247 1248
1214 1211 1208 1205 1203 1200 1198 1197 1195 1194 1193 1191 1190 1189 1189 1188 1187 1187 1186 1185 1184 1183 1182 1182 1181 1180 1180 1181 1181 1182 1183 1183 1184 1186 1187 1189 1191 1192 1193 1195 1196 1197 1198 1200 1202 1203 1205 1206 1208 1210 1212 1213 1214 1216 1217 1218 1220 1221 1223 1224 1225 1227 1228 1228 1229 1230 1231 1232 1233 1234 1235 1236 1236 1237 1238 1238 1239 1240 1241 1241 1242 1243 1244 1244 1245 1246
1212 1209 1206 1203 1201 1199 1197 1195 1194 1193 1192 1191 1189 1189 1188 1188 1187 1186 1186 1185 1184 1183 1182 1181 1181 1180 1180 1180 1181 1182 1183 1184 1185 1186 1188 1189 1191 1192 1193 1194 1196 1197 1199 1200 1202 1203 1205 1206 1208 1209 1211 1212 1214 1215 1216 1218 1219 1220 1222 1223 1224 1225 1226 1227 1228 1229 1230 1231 1232 1233 1233 1234 1235 1235 1236 1236 1237 1238 1238 1239 1240 1241 1242 1243 1243 1244
1210 1207 1204 1201 1199 1197 1196 1194 1193 1192 1191 1190 1189 1188 1188 1187 1187 1186 1186 1185 1184 1183 1182 1182 1181 1181 1180 1181 1181 1182 1183 1184 1185 1186 1188 1189 1190 1192 1193 1194 1196 1197 1199 1200 1202 1204 1205 1207 1208 1209 1210 1212 1213 1214 1216 1217 1218 1220 1221 1222 1223 1224 1225 1226 1227 1227 1228 1229 1230 1231 1232 1232 1233 1233 1234 1234 1235 1236 1237 1238 1238 1239 1240 1241 1242 1242
1208 1205 1202 1200 1198 1196 1195 1194 1193 1191 1190 1189 1189 1188 1188 1187 1187 1186 1186 1185 1184 1183 1183 1183 1182 1181 1181 1181 1182 1182 1183 1184 1186 1187 1188 1189 1191 1192 1194 1195 1197 1198 1199 1201 1203 1204 1206 1207 1208 1209 1210 1211 1213 1214 1215 1216 1218 1219 1220 1221 1222 1223 1224 1225 1225 1226 1227 1228 1229 1229 1230 1231 1231 1232 1232 1233 1233 1234 1235 1236 1237 1238 1238 1239 1240 1240
1206 1203 1201 1199 1197 1196 1194 1193 1192 1191 1190 1189 1188 1188 1188 1187 1187 1186 1186 1185 1185 1184 1183 1183 1183 1182 1182 1182 1183 1183 1184 1185 1186 1188 1189 1190 1192 1193 1194 1196 1197 1198 1200 1201 1203 1204 1205 1207 1208 1209 1210 1211 1212 1213 1215 1216 1217 1218 1219 1220 1221 1222 1223 1223 1224 1225 1226 1227 1227 1228 1228 1229 1229 1230 1231 1232 1232 1233 1234 1234 1235 1236 1237 1237 1238 1238
1205 1203 1200 1198 1196 1195 1194 1193 1192 1191 1190 1189 1188 1188 1188 1188 1187 1187 1186 1186 1186 1185 1184 1184 1183 1183 1183 1183 1184 1184 1185 1186 1187 1188 1189 1191 1192 1193 1195 1196 1198 1199 1201 1202 1203 1204 1206 1207 1208 1209 1210 1211 1212 1213 1214 1215 1217 1218 1218 1219 1220 1220 1221 1222 1223 1224 1225 1225 1226 1227 1227 1228 1228 1229 1230 1230 1231 1232 1232 1233 1234 1234 1235 1236 1236 1237
1204 1202 1199 1197 1196 1194 1193 1192 1191 1190 1189 1189 1188 1188 1188 1188 1187 1187 1187 1187 1186 1186 1185 1185 1184 1184 1184 1185 1186 1186 1187 1188 1188 1189 1190 1192 1193 1194 1195 1197 1198 1200 1201 1203 1203 1205 1206 1207 1208 1209 1210 1211 1212 1213 1214 1215 1216 1216 1217 1218 1218 1219 1220 1221 1222 1223 1223 1224 1225 1225 1226 1227 1227 1228 1228 1229 1229 1230 1230 1231 1232 1233 1233 1234 1234 1235
1203 1201 1198 1197 1195 1194 1193 1192 1191 1190 1189 1189 1188 1188 1188 1188 1188 1188 1187 1187 1187 1187 1187 1186 1186 1186 1186 1187 1187 1188 1188 1189 1190 1190 1192 1193 1194 1195 1197 1198 1199 1200 1202 1203 1204 1205 1206 1207 1208 1209 1210 1211 1212 1213 1213 1214 1215 1215 1216 1217 1218 1218 1219 1220 1221 1222 1222 1223 1223 1224 1225 1225 1226 1226 1227 1227 1227 1228 1228 1229 1230 1231 1232 1232 1233 1233
1202 1199 1198 1196 1195 1193 1193 1192 1191 1190 1189 1189 1188 1188 1188 1188 1188 1188 1188 1188 1188 1188 1188 1188 1188 1188 1188 1188 1188 1189 1190 1190 1191 1192 1193 1194 1195 1196 1198 1199 1200 1201 1202 1203 1204 1205 1206 1207 1208 1209 1210 1211 1211 1212 1213 1213 1214 1214 1215 1216 1217 1218 1218 1219 1220 1220 1221 1222 1222 1223 1223 1224 1224 1224 1225 1225 1225 1226 1226 1227 1228 1229 1230 1230 1231 1232